AUA25L EDDH-LOWW

Flight info

Callsign AUA25L
Flight time N/A
Altitude 39000
Route RAMAR6C RAMAR Z998 RATMO DCT HDO DCT EVIKU DCT BITSI DCT MIKOV MIKOV8W
Aircraft A20N/M-SDE2E3FGHIJ1RWXY/LB1

Departure

Time 2026-05-07 08:13
Airport Hamburg Helmut Schmidt Airport (EDDH)

Arrival

Time N/A
Airport Vienna International Airport (LOWW)
Time Latitude Longitude Altitude Speed Heading
2026-05-07 07:41 53.63074 10.00378 62 ft 0 kts 93°
2026-05-07 07:58 53.63074 10.00372 62 ft 2 kts 93°
2026-05-07 07:58 53.63074 10.00347 62 ft 2 kts 93°
2026-05-07 07:58 53.63075 10.00322 62 ft 2 kts 93°
2026-05-07 07:59 53.63076 10.00297 62 ft 2 kts 93°
2026-05-07 07:59 53.63077 10.00272 62 ft 2 kts 93°
2026-05-07 07:59 53.63080 10.00247 62 ft 2 kts 123°
2026-05-07 07:59 53.63090 10.00229 62 ft 2 kts 153°
2026-05-07 08:00 53.63100 10.00224 62 ft 0 kts 174°
2026-05-07 08:00 53.63107 10.00223 62 ft 0 kts 177°
2026-05-07 08:01 53.63106 10.00223 62 ft 0 kts 177°
2026-05-07 08:01 53.63082 10.00221 62 ft 8 kts 189°
2026-05-07 08:02 53.63023 10.00173 62 ft 9 kts 212°
2026-05-07 08:02 53.62967 10.00111 62 ft 9 kts 215°
2026-05-07 08:02 53.62955 10.00011 62 ft 9 kts 299°
2026-05-07 08:02 53.63009 9.99947 62 ft 9 kts 332°
2026-05-07 08:03 53.63070 9.99896 62 ft 9 kts 334°
2026-05-07 08:03 53.63130 9.99844 62 ft 9 kts 332°
2026-05-07 08:03 53.63190 9.99790 62 ft 9 kts 332°
2026-05-07 08:03 53.63225 9.99705 62 ft 9 kts 264°
2026-05-07 08:04 53.63191 9.99610 62 ft 9 kts 230°
2026-05-07 08:04 53.63148 9.99521 62 ft 10 kts 232°
2026-05-07 08:04 53.63108 9.99425 62 ft 10 kts 237°
2026-05-07 08:04 53.63067 9.99326 62 ft 10 kts 234°
2026-05-07 08:05 53.63023 9.99227 62 ft 10 kts 231°
2026-05-07 08:05 53.62976 9.99133 62 ft 10 kts 229°
2026-05-07 08:05 53.62929 9.99039 62 ft 10 kts 231°
2026-05-07 08:05 53.62884 9.98945 62 ft 10 kts 230°
2026-05-07 08:06 53.62838 9.98852 62 ft 10 kts 229°
2026-05-07 08:06 53.62790 9.98757 62 ft 11 kts 230°
2026-05-07 08:06 53.62758 9.98694 62 ft 0 kts 229°
2026-05-07 08:06 53.62750 9.98677 62 ft 3 kts 229°
2026-05-07 08:07 53.62730 9.98640 62 ft 5 kts 229°
2026-05-07 08:07 53.62702 9.98585 62 ft 7 kts 229°
2026-05-07 08:07 53.62665 9.98512 62 ft 9 kts 230°
2026-05-07 08:07 53.62620 9.98421 62 ft 10 kts 232°
2026-05-07 08:08 53.62571 9.98312 62 ft 12 kts 233°
2026-05-07 08:08 53.62509 9.98198 62 ft 13 kts 223°
2026-05-07 08:08 53.62434 9.98084 62 ft 15 kts 222°
2026-05-07 08:08 53.62364 9.97960 62 ft 10 kts 230°
2026-05-07 08:09 53.62316 9.97862 62 ft 11 kts 231°
2026-05-07 08:09 53.62261 9.97748 62 ft 13 kts 231°
2026-05-07 08:09 53.62200 9.97623 62 ft 13 kts 230°
2026-05-07 08:09 53.62139 9.97505 62 ft 8 kts 229°
2026-05-07 08:10 53.62096 9.97420 62 ft 10 kts 230°
2026-05-07 08:10 53.62047 9.97318 62 ft 12 kts 231°
2026-05-07 08:10 53.61990 9.97202 62 ft 13 kts 231°
2026-05-07 08:10 53.61928 9.97076 62 ft 14 kts 230°
2026-05-07 08:11 53.61860 9.96940 62 ft 15 kts 230°
2026-05-07 08:11 53.61787 9.96794 62 ft 16 kts 230°
2026-05-07 08:11 53.61716 9.96650 62 ft 14 kts 230°
2026-05-07 08:11 53.61674 9.96550 62 ft 9 kts 248°
2026-05-07 08:12 53.61688 9.96445 62 ft 10 kts 316°
2026-05-07 08:12 53.61762 9.96418 62 ft 11 kts
2026-05-07 08:12 53.61840 9.96445 62 ft 9 kts 22°
2026-05-07 08:12 53.61896 9.96518 62 ft 13 kts 47°
2026-05-07 08:13 53.62125 9.96974 62 ft 93 kts 52°
2026-05-07 08:13 53.62681 9.98128 184 ft 150 kts 51°
2026-05-07 08:13 53.63320 9.99470 1015 ft 151 kts 52°
2026-05-07 08:13 53.63969 10.00792 1957 ft 149 kts 52°
2026-05-07 08:14 53.64638 10.02197 2593 ft 164 kts 51°
2026-05-07 08:14 53.65402 10.03749 3191 ft 185 kts 52°
2026-05-07 08:14 53.66243 10.05519 3917 ft 202 kts 52°
2026-05-07 08:14 53.67109 10.07350 4840 ft 208 kts 52°
2026-05-07 08:15 53.68002 10.09238 5830 ft 211 kts 52°
2026-05-07 08:15 53.68921 10.11177 6812 ft 215 kts 52°
2026-05-07 08:15 53.69844 10.13127 7743 ft 220 kts 51°
2026-05-07 08:15 53.70768 10.15161 8642 ft 226 kts 57°
2026-05-07 08:16 53.71474 10.17522 9489 ft 234 kts 69°
2026-05-07 08:16 53.71982 10.20243 10116 ft 251 kts 73°
2026-05-07 08:16 53.72461 10.23138 10696 ft 270 kts 73°
2026-05-07 08:16 53.72975 10.26294 11283 ft 288 kts 73°
2026-05-07 08:17 53.73523 10.29641 11840 ft 307 kts 73°
2026-05-07 08:17 53.74105 10.33174 12592 ft 318 kts 73°
2026-05-07 08:17 53.74696 10.36757 13466 ft 323 kts 73°
2026-05-07 08:17 53.75302 10.40424 14322 ft 329 kts 73°
2026-05-07 08:18 53.75915 10.44134 15139 ft 334 kts 73°
2026-05-07 08:18 53.76537 10.47904 15961 ft 339 kts 73°
2026-05-07 08:18 53.77173 10.51769 16767 ft 344 kts 73°
2026-05-07 08:18 53.77811 10.55655 17547 ft 349 kts 74°
2026-05-07 08:19 53.78462 10.59633 18315 ft 354 kts 74°
2026-05-07 08:19 53.79119 10.63648 19070 ft 359 kts 74°
2026-05-07 08:19 53.79578 10.67791 19770 ft 363 kts 90°
2026-05-07 08:19 53.79158 10.71931 20476 ft 365 kts 112°
2026-05-07 08:20 53.77942 10.75697 21233 ft 366 kts 124°
2026-05-07 08:20 53.76564 10.79272 21944 ft 370 kts 125°
2026-05-07 08:20 53.75159 10.82923 22653 ft 374 kts 124°
2026-05-07 08:20 53.73760 10.86624 23348 ft 378 kts 124°
2026-05-07 08:21 53.72328 10.90362 24039 ft 381 kts 128°
2026-05-07 08:21 53.70618 10.93684 24720 ft 382 kts 138°
2026-05-07 08:21 53.68541 10.96489 25390 ft 384 kts 148°
2026-05-07 08:21 53.66276 10.98864 26048 ft 386 kts 150°
2026-05-07 08:22 53.63975 11.01178 26684 ft 390 kts 151°
2026-05-07 08:22 53.61639 11.03523 27303 ft 393 kts 150°
2026-05-07 08:22 53.59312 11.05868 27887 ft 397 kts 150°
2026-05-07 08:22 53.56936 11.08271 28443 ft 400 kts 150°
2026-05-07 08:23 53.54558 11.10681 28970 ft 403 kts 150°
2026-05-07 08:23 53.52140 11.13133 29479 ft 406 kts 150°
2026-05-07 08:23 53.49734 11.15572 29966 ft 409 kts 150°
2026-05-07 08:23 53.47284 11.18053 30440 ft 412 kts 150°
2026-05-07 08:24 53.44844 11.20522 30886 ft 415 kts 149°
2026-05-07 08:24 53.42398 11.22994 31285 ft 417 kts 149°
2026-05-07 08:24 53.39889 11.25529 31649 ft 419 kts 150°
2026-05-07 08:24 53.37383 11.28054 32007 ft 422 kts 150°
2026-05-07 08:25 53.34900 11.30554 32438 ft 421 kts 150°
2026-05-07 08:25 53.32406 11.33061 32922 ft 419 kts 150°
2026-05-07 08:25 53.29945 11.35561 33331 ft 418 kts 149°
2026-05-07 08:25 53.27537 11.38270 33669 ft 418 kts 146°
2026-05-07 08:26 53.23025 11.44361 34274 ft 419 kts 139°
2026-05-07 08:26 53.20888 11.47656 34566 ft 419 kts 139°
2026-05-07 08:26 53.18746 11.50958 34870 ft 419 kts 139°
2026-05-07 08:27 53.16617 11.54225 35173 ft 419 kts 139°
2026-05-07 08:27 53.14498 11.57469 35456 ft 419 kts 139°
2026-05-07 08:27 53.12353 11.60751 35743 ft 418 kts 139°
2026-05-07 08:27 53.10228 11.63999 36012 ft 418 kts 139°
2026-05-07 08:28 53.08076 11.67285 36273 ft 418 kts 140°
2026-05-07 08:28 53.05968 11.70503 36539 ft 418 kts 140°
2026-05-07 08:28 53.03812 11.73785 36800 ft 417 kts 140°
2026-05-07 08:28 53.01691 11.77027 37049 ft 418 kts 139°
2026-05-07 08:29 52.99645 11.80418 37281 ft 419 kts 136°
2026-05-07 08:29 52.97713 11.84016 37485 ft 421 kts 132°
2026-05-07 08:29 52.95896 11.87827 37675 ft 424 kts 130°
2026-05-07 08:29 52.94128 11.91714 37874 ft 425 kts 129°
2026-05-07 08:30 52.92347 11.95626 38053 ft 426 kts 129°
2026-05-07 08:30 52.90566 11.99521 38217 ft 428 kts 129°
2026-05-07 08:30 52.88779 12.03419 38378 ft 429 kts 129°
2026-05-07 08:30 52.86969 12.07359 38551 ft 431 kts 129°
2026-05-07 08:31 52.85165 12.11284 38732 ft 432 kts 129°
2026-05-07 08:31 52.83347 12.15234 38924 ft 433 kts 129°
2026-05-07 08:31 52.79702 12.23141 39006 ft 436 kts 129°
2026-05-07 08:32 52.76049 12.31036 39002 ft 435 kts 129°
2026-05-07 08:32 52.72196 12.38691 39008 ft 433 kts 135°
2026-05-07 08:33 52.67862 12.45496 38997 ft 430 kts 142°
2026-05-07 08:33 52.63127 12.51358 38998 ft 428 kts 147°
2026-05-07 08:34 52.58257 12.56887 38983 ft 428 kts 147°
2026-05-07 08:34 52.53356 12.62452 38987 ft 428 kts 147°
2026-05-07 08:35 52.48465 12.67995 38986 ft 428 kts 148°
2026-05-07 08:35 52.43580 12.73515 38970 ft 428 kts 148°
2026-05-07 08:36 52.38709 12.79005 38971 ft 428 kts 148°
2026-05-07 08:36 52.33818 12.84503 38973 ft 427 kts 148°
2026-05-07 08:37 52.28934 12.89977 38979 ft 427 kts 148°
2026-05-07 08:37 52.24059 12.95427 38975 ft 426 kts 148°
2026-05-07 08:38 52.19195 13.00848 38978 ft 426 kts 148°
2026-05-07 08:38 52.14316 13.06274 38969 ft 427 kts 148°
2026-05-07 08:39 52.09404 13.11719 38969 ft 427 kts 148°
2026-05-07 08:39 52.04524 13.17115 38971 ft 427 kts 148°
2026-05-07 08:40 51.99648 13.22497 38977 ft 426 kts 148°
2026-05-07 08:40 51.94771 13.27862 38957 ft 426 kts 148°
2026-05-07 08:41 51.89873 13.33235 38965 ft 426 kts 148°
2026-05-07 08:41 51.85003 13.38561 38957 ft 426 kts 148°
2026-05-07 08:42 51.80110 13.43899 38963 ft 426 kts 148°
2026-05-07 08:42 51.75193 13.49249 38955 ft 426 kts 148°
2026-05-07 08:43 51.70295 13.54567 38947 ft 426 kts 148°
2026-05-07 08:43 51.65433 13.59831 38945 ft 425 kts 148°
2026-05-07 08:44 51.60533 13.65121 38946 ft 425 kts 149°
2026-05-07 08:44 51.55649 13.70381 38939 ft 424 kts 149°
2026-05-07 08:45 51.50754 13.75641 38925 ft 424 kts 149°
2026-05-07 08:45 51.45850 13.80893 38918 ft 424 kts 149°
2026-05-07 08:46 51.40960 13.86114 38918 ft 424 kts 149°
2026-05-07 08:46 51.36057 13.91338 38911 ft 425 kts 149°
2026-05-07 08:47 51.31166 13.96537 38909 ft 424 kts 149°
2026-05-07 08:47 51.26291 14.01708 38907 ft 424 kts 149°
2026-05-07 08:48 51.21397 14.06884 38899 ft 423 kts 149°
2026-05-07 08:48 51.16511 14.12039 38904 ft 422 kts 149°
2026-05-07 08:49 51.11622 14.17183 38898 ft 422 kts 149°
2026-05-07 08:49 51.06727 14.22322 38898 ft 422 kts 150°
2026-05-07 08:50 51.01855 14.27417 38895 ft 421 kts 150°
2026-05-07 08:50 50.96902 14.32274 38894 ft 419 kts 154°
2026-05-07 08:51 50.91672 14.36224 38899 ft 417 kts 160°
2026-05-07 08:51 50.86239 14.39183 38907 ft 415 kts 167°
2026-05-07 08:52 50.80665 14.41323 38895 ft 413 kts 169°
2026-05-07 08:52 50.75073 14.43412 38900 ft 413 kts 169°
2026-05-07 08:53 50.69510 14.45481 38905 ft 413 kts 169°
2026-05-07 08:53 50.63941 14.47544 38903 ft 413 kts 169°
2026-05-07 08:54 50.58348 14.49608 38902 ft 414 kts 169°
2026-05-07 08:54 50.52793 14.51771 38901 ft 415 kts 165°
2026-05-07 08:55 50.47450 14.55155 38907 ft 419 kts 155°
2026-05-07 08:55 50.42489 14.60027 38910 ft 423 kts 145°
2026-05-07 08:56 50.38086 14.66162 38921 ft 426 kts 140°
2026-05-07 08:56 50.33869 14.72562 38929 ft 427 kts 140°
2026-05-07 08:57 50.29616 14.79002 38928 ft 426 kts 140°
2026-05-07 08:57 50.25361 14.85420 38930 ft 426 kts 140°
2026-05-07 08:58 50.21105 14.91808 38928 ft 427 kts 140°
2026-05-07 08:58 50.16844 14.98190 38919 ft 428 kts 140°
2026-05-07 08:59 50.12555 15.04596 38919 ft 428 kts 140°
2026-05-07 08:59 50.08272 15.10978 38920 ft 429 kts 140°
2026-05-07 09:00 50.03951 15.17399 38922 ft 428 kts 140°
2026-05-07 09:00 49.99665 15.23752 38928 ft 429 kts 140°
2026-05-07 09:01 49.95358 15.30122 38930 ft 429 kts 140°
2026-05-07 09:01 49.91046 15.36480 38931 ft 428 kts 140°
2026-05-07 09:02 49.86750 15.42795 38937 ft 428 kts 140°
2026-05-07 09:02 49.82437 15.49120 38935 ft 428 kts 140°
2026-05-07 09:03 49.78113 15.55448 38949 ft 427 kts 141°
2026-05-07 09:03 49.73803 15.61740 38829 ft 429 kts 141°
2026-05-07 09:04 49.71650 15.64875 38591 ft 426 kts 141°
2026-05-07 09:04 49.69498 15.68007 38358 ft 422 kts 142°
2026-05-07 09:04 49.67399 15.71063 38081 ft 419 kts 142°
2026-05-07 09:04 49.65286 15.74134 37732 ft 415 kts 142°
2026-05-07 09:05 49.63197 15.77166 37292 ft 413 kts 143°
2026-05-07 09:05 49.61108 15.80190 36754 ft 413 kts 143°
2026-05-07 09:05 49.59032 15.83188 36180 ft 414 kts 143°
2026-05-07 09:05 49.56954 15.86190 35741 ft 416 kts 144°
2026-05-07 09:06 49.55533 15.88238 35412 ft 418 kts 144°